Voltar ao catálogo

STARLINK-1549

AtivoComunicaçõesVLEO
NORAD 46074·PAYLOAD·🇺🇸 United States

Lançado Aug 7, 2020 de Cape Canaveral Space Force Station

Loading…

Próximas Passagens (próximas 24 horas)

TLE

AtualizadoSource: CelesTrak SupGP

Época: Sep 15, 2026, 02:17 UTC

1 46074C 20055AZ  26258.09562500  .00039620  00000+0  99731-3 0  2582
2 46074  53.0460 296.8002 0003612  10.9718  50.4447 15.39320562    17

Acompanhe STARLINK-1549 em tempo real com AllMySat

Download on the App Store